Time,TemperatureF,DewpointF,PressureIn,WindDirection,WindDirectionDegrees,WindSpeedMPH,WindSpeedGustMPH,Humidity,HourlyPrecipIn,Conditions,Clouds,dailyrainin,SoftwareType,DateUTC
2013-07-30 00:00:00,62.0,61.4,30.00,WSW,255,0.0,9.0,98,0.00,,,0.19,Wunderground v.1.15,2013-07-30 04:00:00,
2013-07-30 00:05:00,62.1,61.5,30.00,WSW,255,0.0,9.0,98,0.00,,,0.00,Wunderground v.1.15,2013-07-30 04:05:00,
2013-07-30 00:10:00,62.2,61.6,29.99,WSW,255,0.0,9.0,98,0.00,,,0.00,Wunderground v.1.15,2013-07-30 04:10:00,
2013-07-30 00:15:00,62.2,61.6,29.99,WSW,255,0.0,9.0,98,0.00,,,0.00,Wunderground v.1.15,2013-07-30 04:15:00,
2013-07-30 00:20:00,62.3,61.7,29.99,WSW,255,0.0,9.0,98,0.00,,,0.00,Wunderground v.1.15,2013-07-30 04:20:00,
2013-07-30 00:30:00,62.7,62.1,29.99,SE,131,0.0,9.0,98,0.00,,,0.00,Wunderground v.1.15,2013-07-30 04:30:00,
2013-07-30 00:35:00,62.8,62.2,29.99,West,264,0.0,9.0,98,0.00,,,0.00,Wunderground v.1.15,2013-07-30 04:35:00,
2013-07-30 00:40:00,62.9,62.6,29.98,West,264,0.0,9.0,99,0.00,,,0.00,Wunderground v.1.15,2013-07-30 04:40:00,
2013-07-30 00:50:00,62.9,62.3,29.98,East,86,0.0,9.0,98,0.00,,,0.00,Wunderground v.1.15,2013-07-30 04:50:00,
2013-07-30 00:55:00,62.8,62.2,29.99,East,86,0.0,9.0,98,0.00,,,0.00,Wunderground v.1.15,2013-07-30 04:55:00,
2013-07-30 01:00:00,62.8,62.2,29.98,East,86,0.0,9.0,98,0.00,,,0.00,Wunderground v.1.15,2013-07-30 05:00:00,
2013-07-30 01:10:00,62.8,62.2,29.99,East,86,0.0,9.0,98,0.00,,,0.00,Wunderground v.1.15,2013-07-30 05:10:00,
2013-07-30 01:20:00,62.8,62.2,29.99,North,352,0.0,9.0,98,0.00,,,0.00,Wunderground v.1.15,2013-07-30 05:20:00,
2013-07-30 01:30:00,62.7,62.1,29.99,North,352,0.0,9.0,98,0.00,,,0.00,Wunderground v.1.15,2013-07-30 05:30:00,
2013-07-30 01:40:00,62.6,62.0,29.99,North,352,0.0,9.0,98,0.00,,,0.00,Wunderground v.1.15,2013-07-30 05:40:00,
2013-07-30 01:50:00,62.5,61.9,29.99,North,352,0.0,9.0,98,0.00,,,0.00,Wunderground v.1.15,2013-07-30 05:50:00,
2013-07-30 01:55:00,62.4,61.8,29.99,North,352,0.0,9.0,98,0.00,,,0.00,Wunderground v.1.15,2013-07-30 05:55:00,
2013-07-30 02:05:00,62.4,61.8,29.98,NNW,341,0.0,9.0,98,0.00,,,0.00,Wunderground v.1.15,2013-07-30 06:05:00,
2013-07-30 02:10:00,62.4,61.8,29.98,NNW,341,0.0,9.0,98,0.00,,,0.00,Wunderground v.1.15,2013-07-30 06:10:00,
2013-07-30 02:15:00,62.4,61.8,29.98,NNW,341,0.0,9.0,98,0.00,,,0.00,Wunderground v.1.15,2013-07-30 06:15:00,
2013-07-30 02:25:00,62.4,61.8,29.98,NNW,341,0.0,9.0,98,0.00,,,0.00,Wunderground v.1.15,2013-07-30 06:25:00,
2013-07-30 02:30:00,62.4,61.8,29.98,NNW,341,0.0,9.0,98,0.00,,,0.00,Wunderground v.1.15,2013-07-30 06:30:00,
2013-07-30 02:40:00,62.4,61.8,29.98,NNW,342,0.0,9.0,98,0.00,,,0.00,Wunderground v.1.15,2013-07-30 06:40:00,
2013-07-30 02:45:00,62.5,61.9,29.98,WNW,290,0.0,9.0,98,0.00,,,0.00,Wunderground v.1.15,2013-07-30 06:45:00,
2013-07-30 02:55:00,62.3,61.7,29.98,WNW,290,0.0,9.0,98,0.00,,,0.00,Wunderground v.1.15,2013-07-30 06:55:00,
2013-07-30 03:00:00,62.3,61.7,29.97,WNW,290,0.0,0.0,98,0.00,,,0.00,Wunderground v.1.15,2013-07-30 07:00:00,
2013-07-30 03:10:00,62.3,61.7,29.97,WSW,257,0.0,0.0,98,0.00,,,0.00,Wunderground v.1.15,2013-07-30 07:10:00,
2013-07-30 03:20:00,62.0,61.4,29.97,WSW,254,0.0,0.0,98,0.00,,,0.00,Wunderground v.1.15,2013-07-30 07:20:00,
2013-07-30 03:25:00,62.0,61.4,29.97,WSW,257,0.0,0.0,98,0.00,,,0.00,Wunderground v.1.15,2013-07-30 07:25:00,
2013-07-30 03:35:00,61.7,61.1,29.97,WSW,257,0.0,0.0,98,0.00,,,0.00,Wunderground v.1.15,2013-07-30 07:35:00,
2013-07-30 03:40:00,61.5,60.9,29.97,WSW,257,0.0,0.0,98,0.00,,,0.00,Wunderground v.1.15,2013-07-30 07:40:00,
2013-07-30 03:50:00,61.3,60.7,29.98,WSW,250,0.0,0.0,98,0.00,,,0.00,Wunderground v.1.15,2013-07-30 07:50:00,
2013-07-30 04:00:00,61.3,61.0,29.98,WSW,250,0.0,0.0,99,0.00,,,0.00,Wunderground v.1.15,2013-07-30 08:00:00,
2013-07-30 04:05:00,61.4,61.1,29.98,WSW,250,0.0,0.0,99,0.00,,,0.00,Wunderground v.1.15,2013-07-30 08:05:00,
2013-07-30 04:15:00,61.5,61.2,29.98,WSW,250,0.0,0.0,99,0.00,,,0.00,Wunderground v.1.15,2013-07-30 08:15:00,
2013-07-30 04:25:00,61.6,61.3,29.98,NE,38,0.0,0.0,99,0.00,,,0.00,Wunderground v.1.15,2013-07-30 08:25:00,
2013-07-30 04:30:00,61.6,61.3,29.98,NNE,17,0.0,0.0,99,0.00,,,0.00,Wunderground v.1.15,2013-07-30 08:30:00,
2013-07-30 04:40:00,61.7,61.4,29.98,NNE,29,0.0,0.0,99,0.00,,,0.00,Wunderground v.1.15,2013-07-30 08:40:00,
2013-07-30 04:50:00,61.8,61.5,29.98,WSW,253,0.0,0.0,99,0.00,,,0.00,Wunderground v.1.15,2013-07-30 08:50:00,
2013-07-30 05:00:00,61.9,61.6,29.97,WSW,253,0.0,0.0,99,0.00,,,0.00,Wunderground v.1.15,2013-07-30 09:00:00,
2013-07-30 05:10:00,62.0,61.7,29.97,WSW,253,0.0,0.0,99,0.00,,,0.00,Wunderground v.1.15,2013-07-30 09:10:00,
2013-07-30 05:15:00,62.0,61.7,29.97,WSW,253,0.0,0.0,99,0.00,,,0.00,Wunderground v.1.15,2013-07-30 09:15:00,
2013-07-30 05:25:00,62.2,61.9,29.97,West,277,0.0,0.0,99,0.00,,,0.00,Wunderground v.1.15,2013-07-30 09:25:00,
2013-07-30 05:30:00,62.2,61.9,29.98,West,276,0.0,0.0,99,0.00,,,0.00,Wunderground v.1.15,2013-07-30 09:30:00,
2013-07-30 05:40:00,62.4,62.1,29.98,WSW,253,0.0,0.0,99,0.00,,,0.00,Wunderground v.1.15,2013-07-30 09:40:00,
2013-07-30 05:45:00,62.4,62.1,29.98,SW,230,0.0,0.0,99,0.00,,,0.00,Wunderground v.1.15,2013-07-30 09:45:00,
2013-07-30 05:55:00,62.4,62.1,29.98,WSW,242,0.0,0.0,99,0.00,,,0.00,Wunderground v.1.15,2013-07-30 09:55:00,
2013-07-30 06:05:00,62.4,62.1,29.98,WSW,242,0.0,0.0,99,0.00,,,0.00,Wunderground v.1.15,2013-07-30 10:05:00,
2013-07-30 06:10:00,62.4,62.1,29.98,WSW,243,0.0,0.0,99,0.00,,,0.00,Wunderground v.1.15,2013-07-30 10:10:00,
2013-07-30 06:20:00,62.3,62.0,29.98,NNW,347,0.0,0.0,99,0.00,,,0.00,Wunderground v.1.15,2013-07-30 10:20:00,
2013-07-30 06:25:00,62.4,62.1,29.98,WSW,245,0.0,0.0,99,0.00,,,0.00,Wunderground v.1.15,2013-07-30 10:25:00,
2013-07-30 06:35:00,62.5,62.2,29.99,ENE,64,0.0,0.0,99,0.00,,,0.00,Wunderground v.1.15,2013-07-30 10:35:00,
2013-07-30 06:40:00,62.4,62.1,29.99,NNE,25,0.0,0.0,99,0.00,,,0.00,Wunderground v.1.15,2013-07-30 10:40:00,
2013-07-30 06:50:00,62.4,62.1,29.99,NNE,31,0.0,0.0,99,0.00,,,0.00,Wunderground v.1.15,2013-07-30 10:50:00,
2013-07-30 07:00:00,62.9,62.6,29.99,ENE,72,0.0,0.0,99,0.00,,,0.00,Wunderground v.1.15,2013-07-30 11:00:00,
2013-07-30 07:10:00,62.8,62.5,29.99,North,1,0.0,0.0,99,0.00,,,0.00,Wunderground v.1.15,2013-07-30 11:10:00,
2013-07-30 07:15:00,63.4,63.1,29.99,NE,36,0.0,0.0,99,0.00,,,0.00,Wunderground v.1.15,2013-07-30 11:15:00,
2013-07-30 07:25:00,64.0,63.4,30.00,East,86,0.0,0.0,98,0.00,,,0.00,Wunderground v.1.15,2013-07-30 11:25:00,
2013-07-30 07:30:00,64.5,63.9,30.00,SE,126,0.0,0.0,98,0.00,,,0.00,Wunderground v.1.15,2013-07-30 11:30:00,
2013-07-30 07:40:00,65.8,65.2,29.99,East,88,0.0,0.0,98,0.00,,,0.00,Wunderground v.1.15,2013-07-30 11:40:00,
2013-07-30 07:45:00,65.9,65.3,29.99,East,87,0.0,0.0,98,0.00,,,0.00,Wunderground v.1.15,2013-07-30 11:45:00,
2013-07-30 07:55:00,66.4,65.2,30.00,NE,49,0.0,0.0,96,0.00,,,0.00,Wunderground v.1.15,2013-07-30 11:55:00,
2013-07-30 08:00:00,66.8,65.3,30.00,SSW,195,0.0,0.0,95,0.00,,,0.00,Wunderground v.1.15,2013-07-30 12:00:00,
2013-07-30 08:10:00,68.1,65.7,30.00,WSW,257,0.0,0.0,92,0.00,,,0.00,Wunderground v.1.15,2013-07-30 12:10:00,
2013-07-30 08:15:00,68.4,65.0,30.00,NE,37,0.0,0.0,89,0.00,,,0.00,Wunderground v.1.15,2013-07-30 12:15:00,
2013-07-30 08:25:00,68.6,65.2,30.00,East,94,0.0,0.0,89,0.00,,,0.00,Wunderground v.1.15,2013-07-30 12:25:00,
2013-07-30 08:35:00,69.3,66.2,30.00,ENE,63,0.0,0.0,90,0.00,,,0.00,Wunderground v.1.15,2013-07-30 12:35:00,
2013-07-30 08:45:00,70.2,64.8,30.00,NE,43,0.0,0.0,83,0.00,,,0.00,Wunderground v.1.15,2013-07-30 12:45:00,
2013-07-30 08:50:00,70.3,64.9,30.00,NNE,26,0.0,0.0,83,0.00,,,0.00,Wunderground v.1.15,2013-07-30 12:50:00,
2013-07-30 09:00:00,71.2,64.7,30.00,SSE,159,0.0,0.0,80,0.00,,,0.00,Wunderground v.1.15,2013-07-30 13:00:00,
2013-07-30 09:05:00,71.2,63.6,30.00,SW,219,0.0,0.0,77,0.00,,,0.00,Wunderground v.1.15,2013-07-30 13:05:00,
2013-07-30 09:10:00,71.7,64.1,30.01,SW,222,0.0,0.0,77,0.00,,,0.00,Wunderground v.1.15,2013-07-30 13:10:00,
2013-07-30 09:20:00,72.4,64.0,30.00,West,274,0.0,0.0,75,0.00,,,0.00,Wunderground v.1.15,2013-07-30 13:20:00,
2013-07-30 09:30:00,71.6,63.3,30.01,SW,224,0.0,0.0,75,0.00,,,0.00,Wunderground v.1.15,2013-07-30 13:30:00,
2013-07-30 09:40:00,71.8,64.2,30.01,NNW,330,0.0,0.0,77,0.00,,,0.00,Wunderground v.1.15,2013-07-30 13:40:00,
2013-07-30 09:45:00,71.9,62.8,30.01,NNW,348,0.0,0.0,73,0.00,,,0.00,Wunderground v.1.15,2013-07-30 13:45:00,
2013-07-30 09:55:00,72.0,62.9,30.01,ENE,76,0.0,0.0,73,0.00,,,0.00,Wunderground v.1.15,2013-07-30 13:55:00,
2013-07-30 10:00:00,72.6,64.2,30.00,East,98,0.0,0.0,75,0.00,,,0.00,Wunderground v.1.15,2013-07-30 14:00:00,
2013-07-30 10:10:00,73.5,62.3,30.01,NNW,345,0.0,0.0,68,0.00,,,0.00,Wunderground v.1.15,2013-07-30 14:10:00,
2013-07-30 10:15:00,73.7,63.3,30.01,NW,311,0.0,0.0,70,0.00,,,0.00,Wunderground v.1.15,2013-07-30 14:15:00,
2013-07-30 10:25:00,74.1,64.1,30.01,NNE,32,0.0,0.0,71,0.00,,,0.00,Wunderground v.1.15,2013-07-30 14:25:00,
2013-07-30 10:30:00,74.2,63.4,30.01,NW,309,0.0,0.0,69,0.00,,,0.00,Wunderground v.1.15,2013-07-30 14:30:00,
2013-07-30 10:40:00,74.4,61.0,30.01,West,266,0.0,0.0,63,0.00,,,0.00,Wunderground v.1.15,2013-07-30 14:40:00,
2013-07-30 10:45:00,74.3,63.1,30.01,WSW,245,0.0,0.0,68,0.00,,,0.00,Wunderground v.1.15,2013-07-30 14:45:00,
2013-07-30 10:55:00,74.6,61.2,30.01,WSW,248,0.0,0.0,63,0.00,,,0.00,Wunderground v.1.15,2013-07-30 14:55:00,
2013-07-30 11:00:00,74.9,61.9,30.01,SSW,196,0.0,0.0,64,0.00,,,0.00,Wunderground v.1.15,2013-07-30 15:00:00,
2013-07-30 11:10:00,75.2,62.6,30.00,NNW,342,0.0,0.0,65,0.00,,,0.00,Wunderground v.1.15,2013-07-30 15:10:00,
2013-07-30 11:15:00,75.4,61.9,30.00,ENE,64,0.0,0.0,63,0.00,,,0.00,Wunderground v.1.15,2013-07-30 15:15:00,
2013-07-30 11:25:00,75.0,63.3,30.00,ESE,119,0.0,0.0,67,0.00,,,0.00,Wunderground v.1.15,2013-07-30 15:25:00,
2013-07-30 11:30:00,74.4,62.3,30.00,ENE,70,0.0,0.0,66,0.00,,,0.00,Wunderground v.1.15,2013-07-30 15:30:00,
2013-07-30 11:40:00,75.9,61.9,30.00,SW,234,0.0,0.0,62,0.00,,,0.00,Wunderground v.1.15,2013-07-30 15:40:00,
2013-07-30 11:50:00,75.6,63.4,30.00,NE,36,0.0,0.0,66,0.00,,,0.00,Wunderground v.1.15,2013-07-30 15:50:00,
2013-07-30 11:55:00,76.2,65.7,29.99,WSW,240,0.0,0.0,70,0.00,,,0.00,Wunderground v.1.15,2013-07-30 15:55:00,
2013-07-30 12:05:00,77.0,62.0,29.99,West,272,0.0,0.0,60,0.00,,,0.00,Wunderground v.1.15,2013-07-30 16:05:00,
2013-07-30 12:15:00,75.5,61.6,29.99,NW,322,0.0,0.0,62,0.00,,,0.00,Wunderground v.1.15,2013-07-30 16:15:00,
2013-07-30 12:20:00,75.2,62.6,29.99,SW,225,0.0,0.0,65,0.00,,,0.00,Wunderground v.1.15,2013-07-30 16:20:00,
2013-07-30 12:30:00,75.9,64.2,29.98,WSW,254,0.0,0.0,67,0.00,,,0.00,Wunderground v.1.15,2013-07-30 16:30:00,
2013-07-30 12:40:00,77.5,63.5,29.98,WSW,252,0.0,0.0,62,0.00,,,0.00,Wunderground v.1.15,2013-07-30 16:40:00,
2013-07-30 12:45:00,77.6,64.0,29.98,WNW,303,0.0,0.0,63,0.00,,,0.00,Wunderground v.1.15,2013-07-30 16:45:00,
2013-07-30 12:55:00,77.7,62.2,29.98,WSW,243,0.0,0.0,59,0.00,,,0.00,Wunderground v.1.15,2013-07-30 16:55:00,
2013-07-30 13:00:00,78.0,63.0,29.98,North,7,0.0,0.0,60,0.00,,,0.00,Wunderground v.1.15,2013-07-30 17:00:00,
2013-07-30 13:10:00,76.7,62.2,29.98,West,276,0.0,0.0,61,0.00,,,0.00,Wunderground v.1.15,2013-07-30 17:10:00,
2013-07-30 13:20:00,78.6,61.6,29.97,West,259,0.0,0.0,56,0.00,,,0.00,Wunderground v.1.15,2013-07-30 17:20:00,
2013-07-30 13:25:00,78.3,60.8,29.97,WNW,293,0.0,0.0,55,0.00,,,0.00,Wunderground v.1.15,2013-07-30 17:25:00,
2013-07-30 13:35:00,77.7,59.7,29.97,WSW,242,0.0,0.0,54,0.00,,,0.00,Wunderground v.1.15,2013-07-30 17:35:00,
2013-07-30 13:40:00,77.6,60.7,29.97,WSW,254,0.0,0.0,56,0.00,,,0.00,Wunderground v.1.15,2013-07-30 17:40:00,
2013-07-30 13:50:00,77.5,62.5,29.97,WSW,240,0.0,0.0,60,0.00,,,0.00,Wunderground v.1.15,2013-07-30 17:50:00,
2013-07-30 13:55:00,77.7,59.7,29.97,West,277,0.0,0.0,54,0.00,,,0.00,Wunderground v.1.15,2013-07-30 17:55:00,
2013-07-30 14:05:00,78.3,58.1,29.96,WNW,293,0.0,0.0,50,0.00,,,0.00,Wunderground v.1.15,2013-07-30 18:05:00,
2013-07-30 14:15:00,78.3,59.2,29.97,West,267,4.0,5.0,52,0.00,,,0.00,Wunderground v.1.15,2013-07-30 18:15:00,
2013-07-30 14:20:00,78.2,60.2,29.97,WSW,244,4.0,4.0,54,0.00,,,0.00,Wunderground v.1.15,2013-07-30 18:20:00,
2013-07-30 14:30:00,77.5,59.5,29.96,West,265,3.0,4.0,54,0.00,,,0.00,Wunderground v.1.15,2013-07-30 18:30:00,
2013-07-30 14:35:00,77.8,59.3,29.96,WSW,250,2.0,6.0,53,0.00,,,0.00,Wunderground v.1.15,2013-07-30 18:35:00,
2013-07-30 14:45:00,78.5,58.9,29.96,WSW,241,4.0,4.0,51,0.00,,,0.00,Wunderground v.1.15,2013-07-30 18:45:00,
2013-07-30 14:50:00,78.5,57.2,29.96,NW,305,4.0,4.0,48,0.00,,,0.00,Wunderground v.1.15,2013-07-30 18:50:00,
2013-07-30 14:55:00,78.6,57.3,29.96,WSW,256,4.0,4.0,48,0.00,,,0.00,Wunderground v.1.15,2013-07-30 18:55:00,
2013-07-30 15:05:00,79.9,59.6,29.95,ESE,121,3.0,4.0,50,0.00,,,0.00,Wunderground v.1.15,2013-07-30 19:05:00,
2013-07-30 15:15:00,79.6,57.6,29.95,WSW,240,3.0,6.0,47,0.00,,,0.00,Wunderground v.1.15,2013-07-30 19:15:00,
2013-07-30 15:20:00,79.3,59.0,29.95,SW,230,3.0,4.0,50,0.00,,,0.00,Wunderground v.1.15,2013-07-30 19:20:00,
2013-07-30 15:30:00,79.2,57.2,29.95,NW,326,2.0,2.0,47,0.00,,,0.00,Wunderground v.1.15,2013-07-30 19:30:00,
2013-07-30 15:40:00,79.7,56.5,29.95,SW,222,2.0,4.0,45,0.00,,,0.00,Wunderground v.1.15,2013-07-30 19:40:00,
2013-07-30 15:45:00,79.7,55.2,29.95,North,4,2.0,4.0,43,0.00,,,0.00,Wunderground v.1.15,2013-07-30 19:45:00,
2013-07-30 15:55:00,79.3,56.1,29.95,WSW,249,4.0,4.0,45,0.00,,,0.00,Wunderground v.1.15,2013-07-30 19:55:00,
2013-07-30 16:00:00,79.1,57.1,29.95,West,271,3.0,3.0,47,0.00,,,0.00,Wunderground v.1.15,2013-07-30 20:00:00,
2013-07-30 16:35:00,78.7,57.9,29.95,ESE,121,2.0,3.0,49,0.00,,,0.00,Wunderground v.1.15,2013-07-30 20:35:00,
2013-07-30 16:45:00,79.6,57.6,29.95,WSW,254,1.0,2.0,47,0.00,,,0.00,Wunderground v.1.15,2013-07-30 20:45:00,
2013-07-30 16:50:00,79.4,57.4,29.95,SE,136,1.0,1.0,47,0.00,,,0.00,Wunderground v.1.15,2013-07-30 20:50:00,
2013-07-30 17:00:00,79.3,56.1,29.95,NW,308,2.0,2.0,45,0.00,,,0.00,Wunderground v.1.15,2013-07-30 21:00:00,
2013-07-30 17:05:00,79.8,57.2,29.95,WNW,297,1.0,2.0,46,0.00,,,0.00,Wunderground v.1.15,2013-07-30 21:05:00,
2013-07-30 17:15:00,79.1,55.3,29.95,WSW,248,2.0,7.0,44,0.00,,,0.00,Wunderground v.1.15,2013-07-30 21:15:00,
2013-07-30 17:20:00,78.6,55.5,29.95,SSW,193,3.0,3.0,45,0.00,,,0.00,Wunderground v.1.15,2013-07-30 21:20:00,
2013-07-30 17:30:00,79.0,56.5,29.95,NNW,330,1.0,3.0,46,0.00,,,0.00,Wunderground v.1.15,2013-07-30 21:30:00,
2013-07-30 17:40:00,78.3,56.4,29.95,West,264,1.0,1.0,47,0.00,,,0.00,Wunderground v.1.15,2013-07-30 21:40:00,
2013-07-30 17:50:00,77.7,55.3,29.95,West,261,2.0,2.0,46,0.00,,,0.00,Wunderground v.1.15,2013-07-30 21:50:00,
2013-07-30 18:00:00,76.9,55.7,29.96,ESE,104,1.0,1.0,48,0.00,,,0.00,Wunderground v.1.15,2013-07-30 22:00:00,
2013-07-30 18:10:00,76.4,56.4,29.96,SW,229,1.0,1.0,50,0.00,,,0.00,Wunderground v.1.15,2013-07-30 22:10:00,
2013-07-30 18:15:00,76.0,56.0,29.96,West,264,1.0,1.0,50,0.00,,,0.00,Wunderground v.1.15,2013-07-30 22:15:00,
2013-07-30 18:25:00,75.8,58.0,29.96,WSW,255,0.0,2.0,54,0.00,,,0.00,Wunderground v.1.15,2013-07-30 22:25:00,
2013-07-30 18:30:00,75.5,56.6,29.96,WSW,255,1.0,1.0,52,0.00,,,0.00,Wunderground v.1.15,2013-07-30 22:30:00,
2013-07-30 18:40:00,74.9,55.0,29.96,NE,53,1.0,2.0,50,0.00,,,0.00,Wunderground v.1.15,2013-07-30 22:40:00,
2013-07-30 18:50:00,74.2,55.4,29.96,ESE,110,0.0,0.0,52,0.00,,,0.00,Wunderground v.1.15,2013-07-30 22:50:00,
2013-07-30 18:55:00,73.9,56.7,29.97,SW,224,0.0,0.0,55,0.00,,,0.00,Wunderground v.1.15,2013-07-30 22:55:00,
2013-07-30 19:05:00,73.3,57.1,29.97,NW,319,0.0,0.0,57,0.00,,,0.00,Wunderground v.1.15,2013-07-30 23:05:00,
2013-07-30 19:10:00,72.7,56.6,29.97,NW,319,0.0,0.0,57,0.00,,,0.00,Wunderground v.1.15,2013-07-30 23:10:00,
2013-07-30 19:20:00,72.0,56.9,29.97,North,349,0.0,0.0,59,0.00,,,0.00,Wunderground v.1.15,2013-07-30 23:20:00,
2013-07-30 19:30:00,70.9,57.7,29.98,North,349,0.0,0.0,63,0.00,,,0.00,Wunderground v.1.15,2013-07-30 23:30:00,
2013-07-30 19:35:00,70.4,58.1,29.98,North,349,0.0,0.0,65,0.00,,,0.00,Wunderground v.1.15,2013-07-30 23:35:00,
2013-07-30 19:45:00,69.4,57.5,29.98,North,349,0.0,0.0,66,0.00,,,0.00,Wunderground v.1.15,2013-07-30 23:45:00,
2013-07-30 19:50:00,68.8,59.4,29.98,North,349,0.0,0.0,72,0.00,,,0.00,Wunderground v.1.15,2013-07-30 23:50:00,
2013-07-30 20:00:00,67.3,59.1,29.98,North,349,0.0,0.0,75,0.00,,,0.00,Wunderground v.1.15,2013-07-31 00:00:00,
2013-07-30 20:05:00,66.6,58.8,29.99,North,349,0.0,0.0,76,0.00,,,0.00,Wunderground v.1.15,2013-07-31 00:05:00,
2013-07-30 20:10:00,65.8,58.4,29.99,North,349,0.0,0.0,77,0.00,,,0.00,Wunderground v.1.15,2013-07-31 00:10:00,
2013-07-30 20:20:00,65.0,58.0,29.99,North,349,0.0,0.0,78,0.00,,,0.00,Wunderground v.1.15,2013-07-31 00:20:00,
2013-07-30 20:25:00,64.8,57.8,29.99,North,349,0.0,0.0,78,0.00,,,0.00,Wunderground v.1.15,2013-07-31 00:25:00,
2013-07-30 20:35:00,64.0,57.7,29.99,North,349,0.0,0.0,80,0.00,,,0.00,Wunderground v.1.15,2013-07-31 00:35:00,
2013-07-30 20:45:00,63.2,57.9,30.00,North,349,0.0,0.0,83,0.00,,,0.00,Wunderground v.1.15,2013-07-31 00:45:00,
2013-07-30 20:50:00,63.1,57.5,30.00,North,349,0.0,0.0,82,0.00,,,0.00,Wunderground v.1.15,2013-07-31 00:50:00,
2013-07-30 20:55:00,63.0,57.4,30.00,North,349,0.0,0.0,82,0.00,,,0.00,Wunderground v.1.15,2013-07-31 00:55:00,
2013-07-30 21:05:00,63.0,57.1,30.00,North,349,0.0,1.0,81,0.00,,,0.00,Wunderground v.1.15,2013-07-31 01:05:00,
2013-07-30 21:10:00,62.7,57.1,30.00,North,349,0.0,1.0,82,0.00,,,0.00,Wunderground v.1.15,2013-07-31 01:10:00,
2013-07-30 21:20:00,62.2,57.0,30.00,North,349,0.0,1.0,83,0.00,,,0.00,Wunderground v.1.15,2013-07-31 01:20:00,
2013-07-30 21:25:00,62.3,57.4,30.00,North,349,0.0,1.0,84,0.00,,,0.00,Wunderground v.1.15,2013-07-31 01:25:00,
2013-07-30 21:35:00,62.6,57.0,30.01,North,349,0.0,1.0,82,0.00,,,0.00,Wunderground v.1.15,2013-07-31 01:35:00,
2013-07-30 21:45:00,61.8,58.2,30.01,North,349,0.0,1.0,88,0.00,,,0.00,Wunderground v.1.15,2013-07-31 01:45:00,
2013-07-30 21:55:00,60.8,57.2,30.01,North,349,0.0,1.0,88,0.00,,,0.00,Wunderground v.1.15,2013-07-31 01:55:00,
2013-07-30 22:00:00,60.3,56.7,30.01,North,349,0.0,1.0,88,0.00,,,0.00,Wunderground v.1.15,2013-07-31 02:00:00,
2013-07-30 22:10:00,59.9,56.6,30.01,North,349,0.0,1.0,89,0.00,,,0.00,Wunderground v.1.15,2013-07-31 02:10:00,
2013-07-30 22:15:00,59.4,56.2,30.01,North,349,0.0,1.0,89,0.00,,,0.00,Wunderground v.1.15,2013-07-31 02:15:00,
2013-07-30 22:25:00,58.8,56.5,30.01,North,349,0.0,1.0,92,0.00,,,0.00,Wunderground v.1.15,2013-07-31 02:25:00,
2013-07-30 22:35:00,58.7,56.7,30.01,North,349,0.0,1.0,93,0.00,,,0.00,Wunderground v.1.15,2013-07-31 02:35:00,
2013-07-30 22:45:00,58.5,56.5,30.01,West,261,0.0,1.0,93,0.00,,,0.00,Wunderground v.1.15,2013-07-31 02:45:00,
2013-07-30 22:50:00,58.5,56.8,30.01,West,261,0.0,1.0,94,0.00,,,0.00,Wunderground v.1.15,2013-07-31 02:50:00,
2013-07-30 23:00:00,58.2,56.5,30.01,NNE,25,0.0,1.0,94,0.00,,,0.00,Wunderground v.1.15,2013-07-31 03:00:00,
2013-07-30 23:05:00,58.2,56.5,30.01,NNE,25,0.0,1.0,94,0.00,,,0.00,Wunderground v.1.15,2013-07-31 03:05:00,
2013-07-30 23:15:00,58.7,56.7,30.01,NNE,25,0.0,1.0,93,0.00,,,0.00,Wunderground v.1.15,2013-07-31 03:15:00,
2013-07-30 23:25:00,59.0,56.7,30.01,NNE,25,0.0,1.0,92,0.00,,,0.00,Wunderground v.1.15,2013-07-31 03:25:00,
2013-07-30 23:30:00,59.1,56.8,30.01,NNE,25,0.0,1.0,92,0.00,,,0.00,Wunderground v.1.15,2013-07-31 03:30:00,
2013-07-30 23:40:00,58.8,56.5,30.01,NNE,25,0.0,1.0,92,0.00,,,0.00,Wunderground v.1.15,2013-07-31 03:40:00,
2013-07-30 23:45:00,58.6,56.6,30.01,NNE,25,0.0,1.0,93,0.00,,,0.00,Wunderground v.1.15,2013-07-31 03:45:00,
2013-07-30 23:55:00,58.2,56.2,30.01,NNE,25,0.0,1.0,93,0.00,,,0.00,Wunderground v.1.15,2013-07-31 03:55:00,